CZ-2D DEB

Satellite information

Favourite Embed

Satellite Type and Status

DEBRISIN ORBIT

Key statistics

Satellite CZ-2D DEB at a glance.

Uptime

6201

Days in orbit

Revolutions

≈ 14.6

Per day

Orbit

SSO

Sun Synchronous Orbit

Inclination

98.3

Latest

Satellite identification and parameters

Extended collection of information and parameters for CZ-2D DEB.

Object identification

Identified? True

Debris? True

Object name: CZ-2D DEB

International designator: 2008-056F

Object number (NORAD): 35574

Object ID (CCSDS): 35574

Country: PEOPLES REPUBLIC OF CHINA (PRC)

Current information (Y/N): Y

RCS size: SMALL

Orbital parameters

Period: 98.922 minutes

Inclination: 98.3195 deg

SMA: 7085.275 km

Apoapsis: 784.276 km

Periapsis: 630.004 km

RAAN: 321.6003 deg

Eccentricy: 0.01088679

Argument of periapsis: 280.9281 deg

Mean anomaly: 77.9683 deg

Mean motion: 14.55685925 rev/day

Mean motion (dot): 0.00003855 rev/day2

B* drag term: 0.00082512009 1/REarth

Two-line elements (TLE)

Creation date: Oct. 28, 2025, 2:18 a.m.

Reference frame: TEME

Reference center: EARTH

Epoch: Oct. 27, 2025, 9:33 p.m. UTC

TLE line 0: 0 CZ-2D DEB

TLE line 1: 1 35574U 08056F 25300.89796479 .00003855 00000-0 82512-3 0 9994

TLE line 2: 2 35574 98.3195 321.6003 0108868 280.9281 77.9683 14.55685925889136

Live tracking on map

Real-time ground track for satellite CZ-2D DEB.

In-orbit conjunctions

A list of the most updated potential collisions computed for object CZ-2D DEB.

Target Orbit TCA Probability of collision Miss distance Type
FENGYUN 1C DEB SSO 2025-01-04 11:04:59 0.0001564549 62.0 (m) DEBRIS

Associated space launch

Chinese experimental Earth observation satellite

CZ-2D DEB was lifted into orbit during the mission ‘Long March 2D | Shiyan Weixing 3’, on board a Long March 2D space rocket.

The launch took place on Nov. 5, 2008, 12:15 a.m. from Launch Area 4 (SLS-2 / 603).

For more information about the launch, click the button.

Launch to space Long March 2D | Shiyan Weixing 3
Long March 2D | Shiyan Weixing 3

Agency: N/A

Status: Launch Successful

Launch date: Nov. 5, 2008, 12:15 a.m. UTC

Rocket: Long March 2D

Launch pad: Launch Area 4 (SLS-2 / 603)

Location: Jiuquan Satellite Launch Center, People's Republic of China

...

Latest news about this satellite

There are no fresh news available about this satellite. Check back as we update our databases every day.


Newsletter sign-up

Weekly statistics, charts and insights to help you stay on top of the space industry.